Simultaneous Nadir Overpasses (SNOs) Predictions

Prediction of SNOs between NOAA-21 and METOP-B Satellite Orbit:

Table of predicted SNOs for the next 14.0 days since TLE Epoch: 9/24/2024
Index Date (NOAA-21) Time (NOAA-21) Lat,Lon (NOAA-21) SZA (NOAA-21 ) Date (METOP-B) Time (METOP-B) Lat,Lon (METOP-B) SZA (METOP-B ) Distance(km) Time Diff (sec)
1 10/07/2024 04:21:28 74.18, 103.36 79.94 10/07/2024 04:22:35 74.13, 105.89 79.79 77.06 67
2 10/07/2024 05:12:10 -74.09, -89.08 100.16 10/07/2024 05:13:19 -74.03, -87.03 100.29 63.02 69
3 10/07/2024 06:02:51 73.84, 78.84 79.59 10/07/2024 06:04:03 73.81, 79.77 79.52 28.97 72
4 10/07/2024 06:53:34 -73.79,-113.74 100.45 10/07/2024 06:54:47 -73.70,-113.14 100.57 20.89 73
5 10/07/2024 07:44:17 73.64, 53.94 79.40 10/07/2024 07:45:28 73.63, 54.02 79.38 2.61 71
6 10/07/2024 08:35:01 -73.64,-138.76 100.59 10/07/2024 08:36:10 -73.63,-138.66 100.62 3.55 69
7 10/07/2024 09:25:46 73.59, 28.68 79.37 10/07/2024 09:26:50 73.60, 28.61 79.38 2.65 64
8 10/07/2024 10:16:30 -73.59,-164.02 100.61 10/07/2024 10:17:32 -73.60,-164.07 100.61 1.68 62
9 10/07/2024 11:07:16 73.59, 3.31 79.40 10/07/2024 11:08:12 73.57, 3.21 79.38 3.51 56
10 10/07/2024 11:58:00 -73.59, 170.61 100.59 10/07/2024 11:58:53 -73.62, 170.64 100.57 3.20 53
11 10/07/2024 12:48:46 73.59, -22.07 79.42 10/07/2024 12:49:33 73.60, -22.08 79.43 1.04 47
12 10/07/2024 13:39:30 -73.59, 145.24 100.56 10/07/2024 13:40:15 -73.59, 145.24 100.57 0.09 45
13 10/07/2024 14:30:16 73.59, -47.44 79.45 10/07/2024 14:30:55 73.57, -47.48 79.43 2.61 39
14 10/07/2024 15:21:00 -73.59, 119.86 100.53 10/07/2024 15:21:37 -73.57, 119.84 100.57 3.20 37
15 10/07/2024 16:11:46 73.59, -72.81 79.48 10/07/2024 16:12:16 73.59, -72.77 79.47 1.23 30
16 10/07/2024 17:02:30 -73.59, 94.49 100.51 10/07/2024 17:02:58 -73.59, 94.55 100.52 1.87 28
17 10/07/2024 17:53:16 73.59, -98.19 79.50 10/07/2024 17:53:38 73.56, -98.18 79.48 2.78 22
18 10/07/2024 18:43:59 -73.54, 69.23 100.53 10/07/2024 18:44:20 -73.56, 69.14 100.52 3.35 21
19 10/07/2024 19:34:46 73.59,-123.56 79.53 10/07/2024 19:34:59 73.58,-123.47 79.52 2.88 13
20 10/07/2024 20:25:30 -73.59, 43.74 100.46 10/07/2024 20:25:41 -73.58, 43.85 100.47 3.66 11
21 10/07/2024 21:16:15 73.54,-148.82 79.50 10/07/2024 21:16:21 73.55,-148.87 79.52 2.75 6
22 10/07/2024 22:06:59 -73.54, 18.48 100.48 10/07/2024 22:07:03 -73.55, 18.45 100.47 1.68 4
23 10/07/2024 22:57:45 73.54,-174.19 79.53 10/07/2024 22:57:43 73.53,-174.28 79.52 2.83 2
24 10/07/2024 23:48:29 -73.54, -6.89 100.46 10/07/2024 23:48:25 -73.53, -6.95 100.47 2.72 4
25 10/08/2024 00:39:15 73.53, 160.43 79.56 10/08/2024 00:39:04 73.55, 160.43 79.57 1.53 11
26 10/08/2024 01:29:59 -73.54, -32.26 100.43 10/08/2024 01:29:46 -73.55, -32.24 100.42 0.90 13
27 10/08/2024 02:20:45 73.53, 135.06 79.58 10/08/2024 02:20:26 73.52, 135.03 79.57 1.86 19



Historial Predications of SNOs between NOAA-21 and METOP-B
